SCP
4 4 5 5 6 7 9 9 9 8 7 7 6 5 5 4 4 4 5 5 6 6 5 5 4 4 4 4 4 3 3 3 2 2 2 1 1 1 1 1 1 1 1
4 4 5 5 6 7 8 8 8 7 7 6 6 6 5 5 5 5 5 6 6 6 5 5 5 4 4 4 4 3 3 3 2 2 2 1 1 1 1 1 1 1 1
3 4 4 4 5 6 6 6 6 6 6 6 6 6 6 5 5 5 5 6 6 5 5 5 5 5 4 4 4 4 3 3 2 2 2 1 1 1 1 1 1 1 1
2 2 3 3 3 3 4 4 5 5 5 5 5 6 6 6 5 5 6 6 5 5 5 5 5 5 4 4 4 4 3 3 2 2 2 1 1 1 1 1 1 1 1
1 1 1 1 1 2 2 2 3 4 4 4 5 5 5 5 5 5 5 5 5 5 5 5 5 5 5 4 4 4 3 3 2 2 1 1 1 1 1 0 0 1 1
1 1 1 1 1 1 1 1 2 3 3 3 4 4 5 5 5 5 5 5 5 5 5 4 5 5 4 4 4 3 3 2 2 2 1 1 1 1 1 0 0 0 0
0 1 1 1 0 0 1 1 1 2 2 3 3 3 4 4 4 4 4 4 4 4 4 4 4 4 4 4 3 3 3 2 2 1 1 1 1 1 0 0 0 0 0
0 0 0 1 1 1 1 1 1 2 2 2 2 3 3 3 3 3 3 4 4 4 3 4 4 4 3 3 3 3 2 2 1 1 1 1 1 0 0 0 0 0 0
0 0 0 1 1 1 1 1 2 2 2 2 2 2 2 2 3 3 3 3 3 3 3 3 3 3 3 3 2 2 2 1 1 1 1 1 0 0 0 0 0 0 0
0 0 0 1 1 1 1 2 2 2 2 2 2 2 2 2 2 2 2 2 2 2 2 2 2 2 2 2 2 2 1 1 1 1 1 0 0 0 0 0 0 0 0
0 0 0 1 1 1 1 1 2 2 2 2 1 1 1 2 2 2 2 2 2 2 2 1 1 1 1 1 1 1 1 1 1 0 0 0 0 0 0 0 0 0 0
0 0 1 1 1 1 1 1 1 1 1 1 1 1 1 1 1 1 1 1 1 1 1 1 1 1 1 1 1 1 0 0 0 0 0 0 0 0 0 0 0 0 0
0 1 1 1 1 1 1 1 1 1 1 1 1 1 1 1 1 1 1 1 1 1 1 0 0 0 0 0 0 0 0 0 0 0 0 0 0 0 0 0 0 0 0
0 1 1 1 1 2 1 1 1 1 1 1 1 1 1 0 0 0 0 0 0 0 0 0 0 0 0 0 0 0 0 0 0 0 0 0 0 0 0 0 0 0 0
0 1 1 1 2 2 1 1 1 1 1 1 0 0 0 0 0 0 0 0 0 0 0 0 0 0 0 0 0 0 0 0 0 0 0 0 0 0 0 0 0 0 0
0 0 1 1 1 1 1 1 1 1 1 0 0 0 0 0 0 0 0 0 0 0 0 0 0 0 0 0 0 0 0 0 0 0 0 0 0 0 0 0 0 0 0
0 0 0 1 1 1 1 1 1 1 1 0 0 0 0 0 0 0 0 0 0 0 0 0 0 0 0 0 0 0 0 0 0 0 0 0 0 0 0 0 0 0 0
0 0 0 1 1 1 1 1 1 1 1 0 0 0 0 0 0 0 0 0 0 0 0 0 0 0 0 0 0 0 0 0 0 0 0 0 0 0 0 0 0 0 0
0 0 0 1 1 1 2 1 1 1 0 0 0 0 0 0 0 0 0 0 0 0 0 0 0 0 0 0 0 0 0 0 0 0 0 0 0 0 0 0 0 0 0
0 0 1 1 1 2 2 1 1 1 0 0 0 0 0 0 0 0 0 0 0 0 0 0 0 0 0 0 0 0 0 0 0 0 0 0 0 0 0 0 0 0 0
0 0 1 1 1 2 2 2 1 1 1 0 0 0 0 0 0 0 0 0 0 0 0 0 0 0 0 0 0 0 0 0 0 0 0 0 0 0 0 0 0 0 0
0 0 1 1 1 2 2 2 1 1 1 0 0 0 0 0 0 0 0 0 0 0 0 0 0 0 0 0 0 0 0 0 0 0 0 0 0 0 0 0 0 0 0
0 0 0 1 1 1 2 1 1 1 1 1 0 0 0 0 0 0 0 0 0 0 0 0 0 0 0 0 0 -0 0 0 0 0 0 0 0 0 0 0 0 0 0
0 0 0 1 1 1 1 1 1 1 1 1 1 0 0 0 0 0 0 0 0 0 0 0 0 0 0 0 0 0 0 0 0 0 0 0 0 0 0 0 0 0 0
0 0 0 0 0 1 1 1 1 1 1 1 1 0 0 0 0 0 0 0 0 0 0 0 0 0 0 0 0 0 0 0 0 0 0 0 0 0 0 0 0 0 0
0 0 0 0 0 0 1 1 1 1 1 1 0 0 0 0 0 0 0 0 0 0 0 0 0 0 0 0 0 0 0 0 0 0 0 0 0 0 0 0 0 0 0
Wind_Speed
6 7 6 5 2 2 3 3 4 4 3 4 5 6 6 5 5 5 7 7 6 7 6 5 5 5 5 5 5 4 4 4 3 3 4 5 7 9 7 6 5 5 3
4 7 7 6 6 4 2 0 1 3 4 4 4 4 5 4 5 5 5 6 6 6 7 6 5 6 5 6 6 6 4 4 4 3 2 3 4 5 5 3 4 4 2
6 6 6 7 6 6 5 4 3 3 3 4 3 5 3 4 5 6 4 5 5 6 6 6 6 6 7 7 7 7 7 6 5 5 4 3 3 2 3 4 3 2 2
6 6 5 5 5 5 4 3 3 3 3 4 4 6 6 6 7 5 4 5 6 6 7 7 7 7 7 7 8 8 6 7 6 4 5 5 3 2 3 3 2 2 3
4 4 3 2 3 4 3 3 3 3 3 4 5 5 6 6 5 5 6 5 5 6 6 7 7 8 7 8 8 7 7 6 6 5 4 5 5 5 4 4 3 3 2
1 2 1 1 1 3 3 3 3 3 4 4 5 5 7 7 7 7 6 5 4 4 6 6 6 7 7 7 8 7 7 6 6 5 4 3 3 4 4 4 4 3 3
2 1 1 2 2 3 3 3 4 3 4 5 5 5 6 6 7 6 6 5 4 4 5 5 5 6 6 7 6 6 6 6 5 5 3 3 3 2 2 3 3 3 3
3 3 3 3 3 3 3 4 4 4 4 5 5 4 5 5 5 5 5 5 4 4 4 4 4 4 5 6 5 5 5 4 4 4 3 2 2 2 1 1 1 2 2
5 5 4 4 3 3 3 4 4 4 4 5 5 5 4 4 4 5 4 3 3 3 3 3 3 3 4 5 4 4 4 3 3 3 3 1 1 1 1 0 0 1 2
6 6 4 4 4 3 3 3 4 4 4 4 4 5 4 3 3 3 3 3 3 3 2 2 1 1 1 2 3 3 4 4 4 3 4 2 1 1 1 1 1 1 1
7 6 5 4 4 5 4 3 4 4 3 3 3 4 4 3 3 3 3 2 2 2 1 1 2 2 2 2 3 4 5 5 5 5 5 4 4 3 3 3 2 2 2
8 7 6 5 5 5 5 4 4 3 3 2 2 2 2 3 3 3 4 4 4 3 3 3 4 4 5 4 3 4 5 6 6 6 5 5 5 5 4 4 4 3 2
7 6 5 4 4 5 5 5 4 3 2 1 1 1 2 2 3 4 5 5 5 5 5 6 6 6 6 5 5 6 7 7 6 6 6 7 7 6 5 4 4 4 5
6 5 3 2 3 3 4 4 4 3 2 2 0 1 2 3 4 4 5 5 6 6 6 6 6 6 7 7 7 7 8 8 7 8 8 8 7 6 5 5 6 5 5
7 5 3 2 2 2 3 3 3 2 2 1 0 2 3 3 3 4 5 5 5 6 6 6 6 6 6 7 6 5 8 7 7 7 7 7 7 7 5 5 4 5 5
9 7 5 4 3 3 3 3 2 2 2 2 1 2 3 4 4 4 5 5 5 5 5 5 5 6 7 9 10 6 5 5 6 5 4 6 6 5 5 4 3 3 3
10 8 6 4 3 3 3 3 3 2 3 2 2 4 4 5 5 5 5 4 5 4 5 5 6 6 6 9 10 9 4 5 5 5 5 6 9 9 7 6 4 2 2
11 9 6 4 3 3 3 4 4 4 4 4 4 4 5 6 6 6 5 5 4 3 4 4 5 5 6 9 9 9 4 5 6 6 6 7 7 8 8 6 5 5 4
10 7 6 6 4 4 4 5 5 5 5 5 6 6 6 7 7 7 6 5 4 4 4 4 5 5 5 6 8 8 2 4 6 7 8 7 6 9 11 6 6 6 6
10 8 7 6 4 4 5 6 7 7 6 6 6 7 7 8 8 8 7 5 5 5 5 5 4 5 4 4 6 7 1 3 5 6 7 9 6 7 9 5 5 5 6
14 11 8 6 5 5 6 7 7 7 6 6 6 7 8 8 8 8 6 6 6 5 5 5 5 4 5 5 6 7 3 1 3 5 5 4 3 4 6 5 3 4 6
17 14 9 7 5 6 7 8 7 6 5 6 6 8 9 9 9 8 7 7 6 6 5 5 6 5 4 4 4 5 6 4 3 4 5 4 2 2 5 5 6 10 9
18 15 13 9 5 6 8 9 7 6 6 7 7 8 9 8 8 9 9 7 6 6 6 7 6 6 5 4 4 3 5 6 4 4 4 3 4 4 5 8 9 7 3
18 17 17 13 9 6 7 8 7 6 7 8 8 8 8 8 9 8 8 8 8 7 7 7 7 7 6 6 5 4 3 4 3 2 3 5 7 6 7 5 4 2 1
15 15 14 15 15 9 6 7 7 7 7 8 8 9 9 9 8 8 6 8 6 7 7 6 7 8 7 7 7 5 3 3 2 1 2 4 4 5 4 2 2 2 2
14 14 15 15 16 14 10 7 6 7 8 8 9 8 8 8 8 8 6 4 4 7 7 4 5 6 11 15 13 10 9 7 5 1 3 2 1 0 1 2 2 2 3
Wind_Direction
9 25 23 359 21 110 151 167 197 203 221 226 218 221 230 238 240 233 231 221 217 214 208 228 220 221 231 229 225 223 227 234 238 258 274 273 267 261 251 247 248 251 250
64 37 25 11 5 12 7 193 222 242 233 241 247 242 243 246 245 245 236 224 218 221 224 222 229 227 229 226 227 229 225 229 219 215 248 287 283 282 268 242 235 241 244
75 59 33 20 11 9 7 351 350 312 283 272 264 265 260 253 254 252 246 236 231 228 236 231 227 230 231 230 224 221 220 225 224 208 203 220 241 303 295 264 246 219 222
77 74 51 25 8 1 358 352 351 327 304 289 274 268 259 255 258 260 257 249 236 230 231 233 229 227 231 231 228 218 217 220 230 222 215 220 219 237 289 287 274 238 228
72 75 74 48 356 340 340 344 346 327 311 295 280 276 275 272 275 275 265 255 246 239 237 235 233 230 231 233 232 226 220 217 222 224 217 221 225 227 241 272 293 291 264
56 77 71 106 315 312 322 329 316 303 306 298 292 285 284 287 287 282 274 263 252 239 239 240 235 232 230 227 229 229 226 221 224 226 217 205 204 213 223 245 268 273 270
331 300 262 252 265 293 302 297 296 299 301 293 286 288 290 287 280 278 275 274 270 259 243 246 238 238 232 227 225 223 221 218 220 223 218 208 228 230 219 238 267 284 276
308 293 280 261 257 276 286 292 299 293 289 290 290 286 286 287 293 301 297 282 276 273 266 255 246 245 236 227 213 215 211 202 204 207 194 203 223 227 214 229 285 299 300
304 295 290 287 277 277 276 287 289 285 288 292 294 280 280 290 299 304 300 293 296 291 290 281 266 255 248 224 197 193 189 179 183 162 151 165 212 201 193 202 260 312 324
295 297 298 299 301 297 296 292 289 283 283 289 298 301 314 312 312 313 315 313 314 314 306 311 303 271 256 186 162 145 141 133 119 113 116 102 63 64 24 35 28 14 349
307 310 308 309 312 312 311 309 293 289 286 289 296 303 311 323 333 339 338 331 334 347 351 26 48 58 65 78 115 129 128 123 113 107 100 88 63 42 23 25 24 30 23
315 313 313 320 317 315 313 308 307 302 293 290 303 315 339 356 10 23 32 27 32 35 37 42 61 70 69 67 84 113 109 105 101 94 89 82 74 52 39 18 21 11 357
317 318 319 322 323 319 315 313 310 307 303 300 322 349 26 42 50 51 53 49 47 49 49 53 54 58 62 67 79 87 89 86 84 83 79 70 62 48 32 21 23 6 360
315 313 311 306 308 311 309 304 298 307 303 291 304 62 60 64 70 71 65 61 55 55 52 54 58 61 61 58 64 77 80 77 73 71 70 65 59 43 13 31 24 10 355
318 315 308 283 260 268 275 277 267 268 275 278 169 107 103 91 92 86 76 72 68 66 57 58 59 63 68 63 61 77 88 86 83 77 79 79 76 61 34 33 18 11 4
321 321 323 317 289 262 262 262 248 232 231 232 185 144 136 124 109 100 94 87 80 72 66 66 65 62 63 53 51 60 85 89 87 82 84 98 66 47 27 11 354 349 2
332 325 323 322 300 263 249 250 241 221 214 215 200 175 164 150 138 128 111 102 94 87 85 81 77 74 61 56 50 41 66 81 75 65 48 63 56 36 11 349 317 286 265
330 321 318 310 288 256 215 214 226 221 213 208 206 189 177 161 151 147 141 133 125 124 113 105 96 89 66 50 44 27 55 84 81 69 62 70 56 28 3 351 12 21 18
311 299 290 280 266 247 215 207 222 227 224 213 205 192 181 173 168 166 160 154 147 145 137 129 118 104 79 47 40 22 41 92 87 76 59 66 62 24 11 14 18 16 2
311 301 288 269 247 225 209 213 222 229 228 217 204 190 183 180 178 171 166 162 157 163 153 144 137 128 112 68 47 20 346 124 116 107 92 72 62 31 19 15 14 9 347
325 321 307 279 245 215 209 220 225 229 224 209 193 183 181 182 176 166 166 165 168 167 157 146 141 134 126 101 61 38 30 54 135 134 118 101 70 23 359 347 353 343 320
328 327 317 294 269 230 211 221 226 225 212 198 192 183 180 184 175 166 169 171 170 164 160 155 149 141 137 119 96 70 53 33 72 95 109 130 168 296 311 317 323 326 324
329 328 321 307 290 257 228 219 218 214 204 194 191 183 181 185 169 170 174 175 177 176 174 171 170 162 150 134 131 104 70 63 74 86 114 162 208 261 269 264 284 306 338
328 329 327 320 304 285 270 238 213 203 200 195 187 183 182 182 177 176 179 182 185 187 186 185 180 163 158 162 169 166 142 121 130 159 193 223 239 257 279 280 259 230 39
321 321 323 321 315 308 286 271 241 208 198 195 189 188 188 183 181 183 181 190 190 194 190 190 180 168 168 163 162 170 158 152 110 175 220 219 226 223 220 199 125 84 53
312 315 318 320 318 314 305 281 264 231 203 199 194 193 190 183 181 177 159 82 137 140 136 139 160 153 149 145 134 122 112 98 87 57 275 238 211 108 86 77 87 94 76